Regional Weather Roundup
Issued by NWS Portland, ME

Home | Current Version | Previous Version | Text Only | Print | Product List | Glossary On
Versions: 1 2 3 4 5 6 7 8 9 10 11 12 13 14 15 16 17 18 19 20 21 22 23 24 25 26 27 28 29 30 31 32 33 34 35 36 37 38 39 40 41 42 43 44 45 46 47 48 49 50
000
ASUS41 KGYX 281310
RWRGYX
WEATHER ROUNDUP FOR MAINE AND NEW HAMPSHIRE
NATIONAL WEATHER SERVICE GRAY ME
800 AM EST SAT FEB 28 2015

MEZ002-005-006-010-012-015-018-020-021-024-026-027-029-281400-
MAINE

CITY           SKY/WX    TMP DP  RH WIND       PRES   REMARKS
PORTLAND       SUNNY      3  -8  60 W5        30.70R
SANFORD        SUNNY     -9 -17  70 CALM      30.68R
BAR HARBOR     SUNNY      7  -4  61 CALM      30.67R
WISCASSET      SUNNY      0  -6  76 CALM      30.70R
ROCKLAND       SUNNY      7  -6  56 W6        30.67R
FRYEBURG       SUNNY     -3 -10  72 CALM      30.65R
LEWISTONAUBURN SUNNY      0 -11  60 CALM      30.65R
AUGUSTA        SUNNY      9  -7  48 W6        30.65R
WATERVILLE     SUNNY      1 -11  55 SW3       30.62R
BANGOR         SUNNY      4  -9  55 SW5       30.65R
GREENVILLE       N/A      8  -6  52 VRB7      30.48R
MILLINOCKET    SUNNY      8  -5  55 VRB5      30.59R
HOULTON        SUNNY      7  -8  50 W12       30.54R WCI  -8
PRESQUE ISLE   SUNNY      1 -17  42 S5        30.51R
FRENCHVILLE    SUNNY     -1 -10  65 SW5       30.42R
CARIBOU        SUNNY      1 -10  60 SW8       30.49R
$$

NHZ002-005-008-009-011-012-014-281400-
NEW HAMPSHIRE

CITY           SKY/WX    TMP DP  RH WIND       PRES   REMARKS
PORTSMOUTH     SUNNY      9  -6  50 W6        30.69R
ROCHESTER      SUNNY     10  -6  48 NW3       30.67R
NASHUA         SUNNY      5  -5  63 CALM      30.72R
MANCHESTER     SUNNY      5  -3  69 CALM      30.70R
CONCORD        SUNNY      0  -7  72 CALM      30.70R
LACONIA        SUNNY      7  -4  61 SW6       30.63R
PLYMOUTH       FAIR       7  -2  65 NW8       30.66R
BERLIN         SUNNY    -13 -19  75 CALM      30.61R
WHITEFIELD     SUNNY    -15 -19  82 CALM      30.64R
JAFFREY        SUNNY     -6  -9  86 CALM      30.63R
KEENE          SUNNY     -8  -9  92 CALM      30.70S
LEBANON        SUNNY    -13 -15  91 CALM      30.71R
MT WASHINGTON  MOSUNNY    1 -18  39 NW20        N/A  WCI -20
$$

VTZ005-007-008-281400-
VERMONT

CITY           SKY/WX    TMP DP  RH WIND       PRES   REMARKS
ST JOHNSBURY     N/A    -12 -17  78 MISG      30.69R
MONTPELIER     SUNNY     -8 -11  86 CALM      30.67R
BURLINGTON     SUNNY     -3 -10  72 CALM      30.73R
$$

MAZ007-012-024-CTZ003-RIZ002-NYZ038-NYZ072-281400-
SOUTHERN NEW ENGLAND AND NY

CITY           SKY/WX    TMP DP  RH WIND       PRES   REMARKS
BOSTON         SUNNY     13  -1  54 NW12      30.73R WCI  -1
WORCESTER      SUNNY      9  -3  58 NW13      30.63R WCI  -7
NANTUCKET      SUNNY     21  13  71 NW13      30.70R WCI   9
PROVIDENCE     SUNNY     13  -2  51 NW6       30.73R
HARTFORD       SUNNY     10  -2  58 W5        30.76R
ALBANY         SUNNY      7  -3  64 W7        30.79R
NEW YORK CITY  MOSUNNY   16  -1  47 NW6       30.81R
$$

ANZ081-ANZ082-ANZ150-NHZ014-MEZ023>029-281400-
COASTAL MARINE OBSERVATIONS

STATION/POSITION TIME  TEMP    WIND        PRES    WAVE
                       AIR SEA DIR/SP/G            HT/PER
                 (UTC) (F)     (DEG/KT/KT) (MB)    (FT/S)
MOUNT DESERT ROC 1300   19                 1037.8R
MATINICUS ROCK   1300   19     280/  5/  6 1038.7R
WELLS            1200    7     320/  3/  5 1038.1R
ISLE OF SHOALS   1300   15     310/ 16/ 18 1038.7R
JEFFREYS LEDGE   1221      40                N/A     4/11
CASHES LEDGE BUO 1150   22 39              1036.9    5/11
$$

.............KEY..............
   WCI - WIND CHILL
   TC  - TEMPERATURE IN CELSIUS
   VSB - VISIBILITY IN MILES
   HX  - HEAT INDEX
   FAIR- INDICATES FEW OR NO CLOUDS BELOW 12,000 FT, WITH NO
         SIGNIFICANT WEATHER AND/OR OBSTRUCTIONS TO VISIBILITY.




USA.gov is the U.S. government's official web portal to all federal, state and local government web resources and services.